This demonstration page uses our WeatherBlox Daily Observations layout. Learn more.

Left ArrowRight Arrow

Hourly Observations for October 19, 2022

Temp ( °F °C ) Dew Point ( °F °C ) Humidity (%) Winds ( mph kmh ) Pressure ( in mb ) Visibility ( mi km ) Precip ( " mm )
12:53 am 00:53 Clear 34 1.1 20 -6.7 56 56 WSW 8 13 30.24 1024 N/A 0.00 0.00
1:53 am 01:53 Clear 34 1.1 20 -6.7 56 56 SW 8 13 30.25 1024 N/A 0.00 0.00
2:53 am 02:53 Clear 31 -0.6 18 -7.8 58 58 WSW 8 13 30.25 1024 N/A 0.00 0.00
3:53 am 03:53 Clear 30 -1.1 19 -7.2 63 63 W 6 9 30.24 1024 N/A 0.00 0.00
4:53 am 04:53 Clear 31 -0.6 19 -7.2 61 61 W 6 9 30.26 1025 N/A 0.00 0.00
5:53 am 05:53 Clear 32 0 21 -6.1 63 63 SW 10 17 30.27 1025 N/A 0.00 0.00
6:53 am 06:53 Clear 30 -1.1 21 -6.1 69 69 W 7 11 30.30 1026 N/A 0.00 0.00
7:53 am 07:53 Sunny 28 -2.2 20 -6.7 71 71 WSW 7 11 30.33 1027 N/A 0.00 0.00
8:53 am 08:53 Sunny 34 1.1 23 -5 64 64 Calm 30.32 1027 N/A 0.00 0.00
9:53 am 09:53 Sunny 45 7.2 28 -2.2 51 51 SW 10 17 30.31 1027 N/A 0.00 0.00
10:53 am 10:53 Sunny 53 11.7 26 -3.3 35 35 WSW 12 19 30.29 1026 N/A 0.00 0.00
11:53 am 11:53 Sunny 60 15.6 25 -3.9 26 26 WSW 12 19 30.27 1025 N/A 0.00 0.00
12:53 pm 12:53 Sunny 65 18.3 24 -4.4 21 21 WSW 13 20 30.24 1024 N/A 0.00 0.00
1:53 pm 13:53 Sunny 69 20.6 26 -3.3 20 20 WSW 13 20 30.20 1023 N/A 0.00 0.00
2:53 pm 14:53 Sunny 73 22.8 25 -3.9 16 16 WSW 9 15 30.18 1022 N/A 0.00 0.00
3:53 pm 15:53 Sunny 74 23.3 24 -4.4 15 15 SW 10 17 30.15 1021 N/A 0.00 0.00
4:53 pm 16:53 Sunny 74 23.3 23 -5 15 15 SW 8 13 30.13 1020 N/A 0.00 0.00
5:53 pm 17:53 Sunny 68 20 21 -6.1 17 17 SW 10 17 30.11 1020 N/A 0.00 0.00
6:53 pm 18:53 Clear 56 13.3 23 -5 28 28 S 7 11 30.13 1020 N/A 0.00 0.00
7:53 pm 19:53 Clear 57 13.9 22 -5.6 25 25 SSE 6 9 30.11 1020 N/A 0.00 0.00
8:53 pm 20:53 Clear 51 10.6 21 -6.1 30 30 W 6 9 30.09 1019 N/A 0.00 0.00
9:53 pm 21:53 Clear 51 10.6 22 -5.6 31 31 WNW 3 6 30.04 1017 N/A 0.00 0.00
10:53 pm 22:53 Clear 45 7.2 24 -4.4 43 43 W 7 11 30.04 1017 N/A 0.00 0.00
11:53 pm 23:53 Clear 49 9.4 26 -3.3 41 41 WSW 14 22 30.01 1016 N/A 0.00 0.00

Powered by AerisWeather